| time (UTC) | temp C | wind direction | speed KPH | gust KPH | rain 1hr cm | rain 24hr cm | rain mn cm | humidity % | barometer mb |
| 20260505071350 | 18 | 225 | 6.4 | 12.9 | 0.00 | 0.00 | 0.00 | 68 | 1006.0 |
| 20260505070849 | 18 | 181 | 4.8 | 6.4 | 0.00 | 0.00 | 0.00 | 68 | 1005.9 |
| 20260505070348 | 18 | 214 | 8.0 | 12.9 | 0.00 | 0.00 | 0.00 | 68 | 1005.9 |
| 20260505065848 | 18 | 202 | 3.2 | 9.7 | 0.00 | 0.00 | 0.00 | 68 | 1005.7 |
| 20260505065348 | 18 | 224 | 6.4 | 12.9 | 0.00 | 0.00 | 0.00 | 68 | 1005.7 |
| 20260505064850 | 19 | 213 | 8.0 | 14.5 | 0.00 | 0.00 | 0.00 | 68 | 1005.5 |
| 20260505064355 | 19 | 195 | 9.7 | 14.5 | 0.00 | 0.00 | 0.00 | 68 | 1005.7 |
| 20260505063848 | 19 | 187 | 6.4 | 9.7 | 0.00 | 0.00 | 0.00 | 67 | 1005.8 |
| 20260505063348 | 19 | 191 | 6.4 | 11.3 | 0.00 | 0.00 | 0.00 | 67 | 1005.9 |
| 20260505062848 | 19 | 200 | 6.4 | 9.7 | 0.00 | 0.00 | 0.00 | 67 | 1006.0 |
| 20260505062350 | 19 | 214 | 9.7 | 14.5 | 0.00 | 0.00 | 0.00 | 67 | 1006.0 |
| 20260505061848 | 18 | 186 | 6.4 | 9.7 | 0.00 | 0.00 | 0.00 | 67 | 1006.1 |
| 20260505061350 | 18 | 212 | 6.4 | 12.9 | 0.00 | 0.00 | 0.00 | 68 | 1006.1 |
| 20260505060850 | 18 | 213 | 8.0 | 11.3 | 0.00 | 0.00 | 0.00 | 68 | 1006.1 |
| 20260505060350 | 18 | 193 | 3.2 | 4.8 | 0.00 | 0.00 | 0.00 | 68 | 1006.1 |
| 20260505055849 | 18 | 199 | 4.8 | 9.7 | 0.00 | 0.00 | 0.00 | 68 | 1006.1 |
| 20260505055348 | 18 | 201 | 4.8 | 8.0 | 0.00 | 0.00 | 0.00 | 68 | 1006.1 |
| 20260505054849 | 18 | 204 | 3.2 | 6.4 | 0.00 | 0.00 | 0.00 | 68 | 1006.2 |
| 20260505054348 | 18 | 184 | 4.8 | 8.0 | 0.00 | 0.00 | 0.00 | 67 | 1006.3 |
| 20260505053848 | 19 | 191 | 4.8 | 8.0 | 0.00 | 0.00 | 0.00 | 67 | 1006.2 |
| 20260505053350 | 19 | 218 | 8.0 | 9.7 | 0.00 | 0.00 | 0.00 | 66 | 1006.3 |
| 20260505052849 | 19 | 190 | 9.7 | 14.5 | 0.00 | 0.00 | 0.00 | 66 | 1006.3 |
| 20260505052348 | 19 | 170 | 3.2 | 9.7 | 0.00 | 0.00 | 0.00 | 66 | 1006.3 |
| 20260505051848 | 19 | 220 | 3.2 | 6.4 | 0.00 | 0.00 | 0.00 | 66 | 1006.3 |
| 20260505051349 | 19 | 202 | 11.3 | 17.7 | 0.00 | 0.00 | 0.00 | 66 | 1006.3 |
| 20260505050848 | 19 | 204 | 9.7 | 16.1 | 0.00 | 0.00 | 0.00 | 66 | 1006.3 |
| 20260505050348 | 19 | 188 | 8.0 | 12.9 | 0.00 | 0.00 | 0.00 | 66 | 1006.1 |
| 20260505041349 | 20 | 197 | 8.0 | 12.9 | 0.00 | 0.00 | 0.00 | 64 | 1006.2 |
| 20260505040848 | 20 | 202 | 11.3 | 17.7 | 0.00 | 0.00 | 0.00 | 64 | 1006.3 |
| 20260505040349 | 20 | 193 | 11.3 | 17.7 | 0.00 | 0.00 | 0.00 | 64 | 1006.4 |
| 20260505035850 | 20 | 199 | 8.0 | 14.5 | 0.00 | 0.00 | 0.00 | 64 | 1006.5 |
| 20260505035351 | 20 | 190 | 8.0 | 12.9 | 0.00 | 0.00 | 0.00 | 65 | 1006.6 |
| 20260505034849 | 20 | 195 | 6.4 | 12.9 | 0.00 | 0.00 | 0.00 | 65 | 1006.7 |
| 20260505034348 | 20 | 210 | 9.7 | 14.5 | 0.00 | 0.00 | 0.00 | 65 | 1006.7 |
| 20260505033849 | 20 | 217 | 4.8 | 9.7 | 0.00 | 0.00 | 0.00 | 65 | 1006.8 |
| 20260505033349 | 20 | 228 | 4.8 | 9.7 | 0.00 | 0.00 | 0.00 | 65 | 1006.8 |
| 20260505032849 | 19 | 221 | 8.0 | 14.5 | 0.00 | 0.00 | 0.00 | 65 | 1006.9 |
| 20260505032349 | 19 | 205 | 6.4 | 9.7 | 0.00 | 0.00 | 0.00 | 66 | 1006.9 |
| 20260505031849 | 20 | 205 | 6.4 | 8.0 | 0.00 | 0.00 | 0.00 | 66 | 1006.8 |
| 20260505031348 | 20 | 195 | 6.4 | 9.7 | 0.00 | 0.00 | 0.00 | 66 | 1006.8 |
| 20260505030849 | 19 | 213 | 4.8 | 8.0 | 0.00 | 0.00 | 0.00 | 66 | 1006.9 |
| 20260505030350 | 19 | 199 | 3.2 | 4.8 | 0.00 | 0.00 | 0.00 | 66 | 1006.9 |
| 20260505025851 | 19 | 201 | 4.8 | 6.4 | 0.00 | 0.00 | 0.00 | 65 | 1007.0 |
| 20260505025350 | 19 | 186 | 3.2 | 9.7 | 0.00 | 0.00 | 0.00 | 66 | 1006.9 |
| 20260505024852 | 19 | 221 | 1.6 | 3.2 | 0.00 | 0.00 | 0.00 | 66 | 1006.9 |
| 20260505024352 | 19 | 214 | 0.0 | 3.2 | 0.00 | 0.00 | 0.00 | 66 | 1006.8 |
| 20260505023849 | 20 | 204 | 1.6 | 3.2 | 0.00 | 0.00 | 0.00 | 65 | 1006.8 |
| 20260505023350 | 20 | 217 | 0.0 | 3.2 | 0.00 | 0.00 | 0.00 | 63 | 1006.8 |
| 20260505022851 | 20 | 269 | 1.6 | 1.6 | 0.00 | 0.00 | 0.00 | 63 | 1006.7 |
| 20260505022350 | 20 | 226 | 4.8 | 6.4 | 0.00 | 0.00 | 0.00 | 62 | 1006.6 |
| 20260505021850 | 21 | 207 | 4.8 | 9.7 | 0.00 | 0.00 | 0.00 | 61 | 1006.5 |
| 20260505021351 | 21 | 243 | 3.2 | 6.4 | 0.00 | 0.00 | 0.00 | 61 | 1006.5 |
| 20260505020851 | 21 | 283 | 3.2 | 3.2 | 0.00 | 0.00 | 0.00 | 60 | 1006.5 |
| 20260505020349 | 21 | 246 | 3.2 | 6.4 | 0.00 | 0.00 | 0.00 | 58 | 1006.4 |
| 20260505015849 | 21 | 246 | 3.2 | 4.8 | 0.00 | 0.00 | 0.00 | 58 | 1006.3 |
| 20260505015349 | 21 | 223 | 4.8 | 8.0 | 0.00 | 0.00 | 0.00 | 58 | 1006.1 |
| 20260505014848 | 22 | 202 | 6.4 | 8.0 | 0.00 | 0.00 | 0.00 | 57 | 1006.1 |
| 20260505014348 | 22 | 217 | 4.8 | 6.4 | 0.00 | 0.00 | 0.00 | 56 | 1006.1 |
| 20260505013849 | 22 | 230 | 8.0 | 12.9 | 0.00 | 0.00 | 0.00 | 55 | 1006.1 |
| 20260505013349 | 22 | 216 | 6.4 | 8.0 | 0.00 | 0.00 | 0.00 | 55 | 1006.0 |
| 20260505012848 | 22 | 213 | 6.4 | 9.7 | 0.00 | 0.00 | 0.00 | 55 | 1005.9 |
| 20260505012348 | 22 | 227 | 4.8 | 6.4 | 0.00 | 0.00 | 0.00 | 55 | 1005.9 |
| 20260505011849 | 22 | 217 | 6.4 | 11.3 | 0.00 | 0.00 | 0.00 | 54 | 1005.9 |
| 20260505011350 | 22 | 220 | 4.8 | 8.0 | 0.00 | 0.00 | 0.00 | 53 | 1005.8 |
| 20260505010849 | 22 | 210 | 6.4 | 8.0 | 0.00 | 0.00 | 0.00 | 53 | 1005.7 |
| 20260505010349 | 22 | 221 | 8.0 | 12.9 | 0.00 | 0.00 | 0.00 | 53 | 1005.6 |
| 20260505005850 | 23 | 225 | 6.4 | 14.5 | 0.00 | 0.00 | 0.00 | 53 | 1005.6 |
| 20260505005350 | 23 | 219 | 9.7 | 14.5 | 0.00 | 0.00 | 0.00 | 51 | 1005.6 |
| 20260505004850 | 23 | 200 | 11.3 | 14.5 | 0.00 | 0.00 | 0.00 | 52 | 1005.5 |
| 20260505004348 | 23 | 211 | 3.2 | 8.0 | 0.00 | 0.00 | 0.00 | 53 | 1005.5 |
| 20260505003850 | 23 | 211 | 6.4 | 9.7 | 0.00 | 0.00 | 0.00 | 52 | 1005.5 |
| 20260505003348 | 23 | 209 | 3.2 | 9.7 | 0.00 | 0.00 | 0.00 | 52 | 1005.4 |
| 20260505002848 | 23 | 217 | 6.4 | 9.7 | 0.00 | 0.00 | 0.00 | 51 | 1005.3 |
| 20260505002349 | 23 | 230 | 4.8 | 8.0 | 0.00 | 0.00 | 0.00 | 50 | 1005.3 |
| 20260505001849 | 23 | 213 | 8.0 | 12.9 | 0.00 | 0.00 | 0.00 | 50 | 1005.2 |
| 20260505001350 | 23 | 209 | 4.8 | 6.4 | 0.00 | 0.00 | 0.00 | 50 | 1005.3 |
| 20260505000849 | 24 | 210 | 6.4 | 11.3 | 0.00 | 0.00 | 0.00 | 48 | 1005.3 |
| 20260505000350 | 24 | 212 | 11.3 | 16.1 | 0.00 | 0.00 | 0.00 | 48 | 1005.4 |
| 20260504235848 | 24 | 240 | 9.7 | 16.1 | 0.00 | 0.00 | 0.00 | 49 | 1005.4 |
| 20260504235349 | 24 | 210 | 4.8 | 8.0 | 0.00 | 0.00 | 0.00 | 49 | 1005.4 |
| 20260504234848 | 24 | 231 | 6.4 | 9.7 | 0.00 | 0.00 | 0.00 | 48 | 1005.4 |
| 20260504234348 | 25 | 248 | 6.4 | 9.7 | 0.00 | 0.00 | 0.00 | 49 | 1005.5 |
| 20260504233848 | 25 | 242 | 6.4 | 11.3 | 0.00 | 0.00 | 0.00 | 47 | 1005.4 |
| 20260504233349 | 25 | 236 | 8.0 | 11.3 | 0.00 | 0.00 | 0.00 | 46 | 1005.4 |
| 20260504232848 | 25 | 268 | 6.4 | 12.9 | 0.00 | 0.00 | 0.00 | 44 | 1005.4 |
| 20260504232348 | 26 | 230 | 8.0 | 14.5 | 0.00 | 0.00 | 0.00 | 45 | 1005.4 |
| 20260504231850 | 26 | 221 | 9.7 | 12.9 | 0.00 | 0.00 | 0.00 | 46 | 1005.4 |
| 20260504231348 | 26 | 219 | 9.7 | 19.3 | 0.00 | 0.00 | 0.00 | 47 | 1005.4 |
| 20260504230849 | 26 | 238 | 9.7 | 16.1 | 0.00 | 0.00 | 0.00 | 46 | 1005.4 |
| 20260504230348 | 26 | 232 | 12.9 | 19.3 | 0.00 | 0.00 | 0.00 | 46 | 1005.5 |
| 20260504225848 | 26 | 198 | 8.0 | 12.9 | 0.00 | 0.00 | 0.00 | 47 | 1005.5 |
| 20260504225349 | 26 | 219 | 8.0 | 12.9 | 0.00 | 0.00 | 0.00 | 47 | 1005.4 |
| 20260504224848 | 26 | 207 | 12.9 | 24.1 | 0.00 | 0.00 | 0.00 | 46 | 1005.4 |
| 20260504224348 | 26 | 230 | 9.7 | 14.5 | 0.00 | 0.00 | 0.00 | 47 | 1005.4 |
| 20260504223849 | 26 | 223 | 14.5 | 19.3 | 0.00 | 0.00 | 0.00 | 46 | 1005.5 |
| 20260504223348 | 26 | 229 | 9.7 | 14.5 | 0.00 | 0.00 | 0.00 | 46 | 1005.5 |
| 20260504222849 | 26 | 235 | 6.4 | 12.9 | 0.00 | 0.00 | 0.00 | 47 | 1005.5 |
| 20260504222351 | 26 | 245 | 8.0 | 11.3 | 0.00 | 0.00 | 0.00 | 47 | 1005.4 |
| 20260504221848 | 26 | 208 | 8.0 | 11.3 | 0.00 | 0.00 | 0.00 | 49 | 1005.4 |
| 20260504221348 | 26 | 216 | 12.9 | 17.7 | 0.00 | 0.00 | 0.00 | 46 | 1005.5 |
| 20260504220409 | 26 | 252 | 4.8 | 9.7 | 0.00 | 0.00 | 0.00 | 47 | 1005.5 |
| 20260504215849 | 26 | 245 | 12.9 | 22.5 | 0.00 | 0.00 | 0.00 | 46 | 1005.5 |
| 20260504215348 | 26 | 210 | 8.0 | 14.5 | 0.00 | 0.00 | 0.00 | 47 | 1005.4 |
| 20260504214849 | 26 | 202 | 8.0 | 11.3 | 0.00 | 0.00 | 0.00 | 48 | 1005.5 |
| 20260504214349 | 26 | 194 | 12.9 | 19.3 | 0.00 | 0.00 | 0.00 | 47 | 1005.5 |
| 20260504213849 | 26 | 242 | 14.5 | 19.3 | 0.00 | 0.00 | 0.00 | 47 | 1005.6 |
| 20260504213349 | 25 | 248 | 12.9 | 20.9 | 0.00 | 0.00 | 0.00 | 46 | 1005.6 |
| 20260504212850 | 26 | 218 | 12.9 | 16.1 | 0.00 | 0.00 | 0.00 | 48 | 1005.6 |
| 20260504212350 | 26 | 232 | 9.7 | 14.5 | 0.00 | 0.00 | 0.00 | 48 | 1005.6 |
| 20260504211848 | 26 | 231 | 14.5 | 20.9 | 0.00 | 0.00 | 0.00 | 46 | 1005.7 |
| 20260504211350 | 26 | 222 | 9.7 | 16.1 | 0.00 | 0.00 | 0.00 | 46 | 1005.8 |
| 20260504210850 | 26 | 233 | 11.3 | 14.5 | 0.00 | 0.00 | 0.00 | 46 | 1005.9 |
| 20260504210349 | 26 | 225 | 12.9 | 20.9 | 0.00 | 0.00 | 0.00 | 47 | 1006.0 |
| 20260504205850 | 26 | 222 | 12.9 | 17.7 | 0.00 | 0.00 | 0.00 | 46 | 1006.0 |
| 20260504205348 | 26 | 206 | 12.9 | 25.7 | 0.00 | 0.00 | 0.00 | 47 | 1006.0 |
| 20260504204850 | 26 | 225 | 9.7 | 12.9 | 0.00 | 0.00 | 0.00 | 46 | 1006.1 |
| 20260504204348 | 26 | 234 | 16.1 | 24.1 | 0.00 | 0.00 | 0.00 | 44 | 1006.1 |
| 20260504203849 | 26 | 232 | 12.9 | 20.9 | 0.00 | 0.00 | 0.00 | 45 | 1006.1 |
| 20260504203348 | 26 | 218 | 12.9 | 20.9 | 0.00 | 0.00 | 0.00 | 46 | 1006.3 |
| 20260504202849 | 26 | 238 | 9.7 | 14.5 | 0.00 | 0.00 | 0.00 | 45 | 1006.3 |
| 20260504202348 | 26 | 195 | 14.5 | 19.3 | 0.00 | 0.00 | 0.00 | 48 | 1006.4 |
| 20260504201850 | 26 | 203 | 16.1 | 20.9 | 0.00 | 0.00 | 0.00 | 47 | 1006.3 |
| 20260504201348 | 26 | 214 | 11.3 | 19.3 | 0.00 | 0.00 | 0.00 | 48 | 1006.5 |
| 20260504200849 | 26 | 195 | 17.7 | 22.5 | 0.00 | 0.00 | 0.00 | 47 | 1006.6 |
| 20260504200355 | 26 | 221 | 16.1 | 22.5 | 0.00 | 0.00 | 0.00 | 46 | 1006.5 |
| 20260504195852 | 26 | 211 | 17.7 | 24.1 | 0.00 | 0.00 | 0.00 | 47 | 1006.5 |
| 20260504195348 | 26 | 199 | 12.9 | 24.1 | 0.00 | 0.00 | 0.00 | 47 | 1006.6 |
| 20260504194849 | 26 | 226 | 12.9 | 20.9 | 0.00 | 0.00 | 0.00 | 48 | 1006.7 |
| 20260504194350 | 26 | 216 | 14.5 | 24.1 | 0.00 | 0.00 | 0.00 | 46 | 1006.7 |
| 20260504193848 | 26 | 211 | 16.1 | 22.5 | 0.00 | 0.00 | 0.00 | 47 | 1006.8 |
| 20260504193349 | 26 | 190 | 14.5 | 20.9 | 0.00 | 0.00 | 0.00 | 47 | 1006.9 |
| 20260504192849 | 26 | 247 | 16.1 | 20.9 | 0.00 | 0.00 | 0.00 | 45 | 1006.9 |
| 20260504192349 | 26 | 226 | 16.1 | 20.9 | 0.00 | 0.00 | 0.00 | 46 | 1006.9 |
| 20260504191849 | 26 | 223 | 11.3 | 17.7 | 0.00 | 0.00 | 0.00 | 47 | 1007.0 |
| 20260504191348 | 26 | 206 | 14.5 | 19.3 | 0.00 | 0.00 | 0.00 | 47 | 1006.9 |
| 20260504190849 | 26 | 214 | 14.5 | 22.5 | 0.00 | 0.00 | 0.00 | 46 | 1006.8 |
| 20260504190350 | 26 | 262 | 11.3 | 17.7 | 0.00 | 0.00 | 0.00 | 46 | 1006.8 |
| 20260504185851 | 26 | 246 | 14.5 | 20.9 | 0.00 | 0.00 | 0.00 | 45 | 1006.8 |
| 20260504185351 | 26 | 243 | 14.5 | 17.7 | 0.00 | 0.00 | 0.00 | 45 | 1007.0 |
| 20260504184848 | 26 | 235 | 16.1 | 27.4 | 0.00 | 0.00 | 0.00 | 45 | 1007.0 |
| 20260504184351 | 26 | 221 | 14.5 | 22.5 | 0.00 | 0.00 | 0.00 | 46 | 1007.1 |
| 20260504183854 | 26 | 237 | 11.3 | 19.3 | 0.00 | 0.00 | 0.00 | 46 | 1007.1 |
| 20260504183352 | 26 | 256 | 12.9 | 17.7 | 0.00 | 0.00 | 0.00 | 44 | 1007.1 |
| 20260504182850 | 26 | 262 | 14.5 | 19.3 | 0.00 | 0.00 | 0.00 | 46 | 1007.2 |
| 20260504182352 | 25 | 218 | 11.3 | 17.7 | 0.00 | 0.00 | 0.00 | 46 | 1007.1 |
| 20260504181853 | 26 | 203 | 17.7 | 24.1 | 0.00 | 0.00 | 0.00 | 46 | 1007.1 |
| 20260504181351 | 26 | 212 | 9.7 | 14.5 | 0.00 | 0.00 | 0.00 | 47 | 1007.1 |
| 20260504180850 | 26 | 240 | 12.9 | 16.1 | 0.00 | 0.00 | 0.00 | 46 | 1007.0 |
| 20260504180350 | 26 | 245 | 11.3 | 17.7 | 0.00 | 0.00 | 0.00 | 45 | 1007.0 |
| 20260504175849 | 25 | 268 | 9.7 | 14.5 | 0.00 | 0.00 | 0.00 | 46 | 1006.9 |
| 20260504175351 | 25 | 224 | 14.5 | 19.3 | 0.00 | 0.00 | 0.00 | 46 | 1007.0 |
| 20260504174858 | 25 | 234 | 17.7 | 27.4 | 0.00 | 0.00 | 0.00 | 45 | 1007.2 |
| 20260504174352 | 25 | 274 | 8.0 | 14.5 | 0.00 | 0.00 | 0.00 | 46 | 1007.1 |
| 20260504173853 | 25 | 266 | 16.1 | 22.5 | 0.00 | 0.00 | 0.00 | 46 | 1007.0 |
| 20260504173350 | 25 | 214 | 14.5 | 20.9 | 0.00 | 0.00 | 0.00 | 47 | 1007.1 |
| 20260504172850 | 25 | 217 | 12.9 | 20.9 | 0.00 | 0.00 | 0.00 | 47 | 1007.0 |
| 20260504172350 | 25 | 234 | 11.3 | 16.1 | 0.00 | 0.00 | 0.00 | 46 | 1007.1 |
| 20260504171849 | 25 | 243 | 11.3 | 19.3 | 0.00 | 0.00 | 0.00 | 47 | 1007.2 |
| 20260504171350 | 25 | 264 | 11.3 | 17.7 | 0.00 | 0.00 | 0.00 | 46 | 1007.1 |
| 20260504170851 | 25 | 233 | 14.5 | 17.7 | 0.00 | 0.00 | 0.00 | 47 | 1007.2 |
| 20260504170349 | 25 | 227 | 11.3 | 17.7 | 0.00 | 0.00 | 0.00 | 49 | 1007.2 |
| 20260504160351 | 23 | 245 | 11.3 | 17.7 | 0.00 | 0.00 | 0.00 | 47 | 1007.5 |
| 20260504150852 | 22 | 234 | 12.9 | 16.1 | 0.00 | 0.00 | 0.00 | 47 | 1008.2 |
| 20260504150351 | 22 | 220 | 16.1 | 24.1 | 0.00 | 0.00 | 0.00 | 47 | 1008.2 |
| 20260504140853 | 20 | 221 | 14.5 | 20.9 | 0.00 | 0.00 | 0.00 | 50 | 1008.8 |
| 20260504140354 | 20 | 239 | 9.7 | 14.5 | 0.00 | 0.00 | 0.00 | 52 | 1008.8 |
| 20260504130351 | 18 | 223 | 9.7 | 14.5 | 0.00 | 0.00 | 0.00 | 55 | 1009.0 |
| 20260504110350 | 17 | 230 | 6.4 | 9.7 | 0.00 | 0.00 | 0.00 | 55 | 1009.5 |
| 20260504100350 | 17 | 217 | 8.0 | 14.5 | 0.00 | 0.00 | 0.00 | 53 | 1009.6 |
| 20260504081848 | 18 | 238 | 8.0 | 12.9 | 0.00 | 0.00 | 0.00 | 52 | 1009.8 |
| 20260504081350 | 18 | 236 | 9.7 | 12.9 | 0.00 | 0.00 | 0.00 | 52 | 1009.8 |
| 20260504080849 | 18 | 243 | 6.4 | 11.3 | 0.00 | 0.00 | 0.00 | 53 | 1009.9 |
| 20260504080349 | 18 | 230 | 8.0 | 12.9 | 0.00 | 0.00 | 0.00 | 52 | 1010.0 |